Regional Weather Roundup
Issued by NWS Goodland, KS

Home | Current Version | Previous Version | Text Only | Print | Product List | Glossary Off
Versions: 1 2 3 4 5 6 7 8 9 10 11 12 13 14 15 16 17 18 19 20 21 22 23 24 25 26 27 28 29 30 31 32 33 34 35 36 37 38 39 40 41 42 43 44 45 46 47 48 49 50

000
ASUS43 KGLD 310159
RWRGLD

GOODLAND FORECAST AREA HOURLY WEATHER ROUNDUP
NATIONAL WEATHER SERVICE GOODLAND KS
700 PM MST FRI JAN 30 2015

...OFFICIAL OBSERVATIONS...

CITY           SKY/WX    TMP DP  RH WIND       PRES   REMARKS
GOODLAND KS    CLOUDY    35  32  88 S16       30.14F
HILL CITY KS   LGT RAIN  38  32  79 S20       30.26R
IMPERIAL NEB   CLOUDY    41  31  67 S15       30.13S
MCCOOK NEB     CLOUDY    41  33  73 S14       30.20R
AKRON CO       CLOUDY    37  29  72 N8        30.04F
BURLINGTON CO  CLOUDY    34  31  88 S18       30.11F
LIMON CO       CLOUDY    34  31  88 SE5       30.07R
$$

...UNOFFICIAL OBSERVATIONS...

CITY           SKY/WX    TMP DP  RH WIND       PRES   REMARKS
COLBY KS       DRIZZLE   36  36 100 S12G18    30.19S
GOVE KS          N/A     36  32  85 MISG        N/A
NORTON KS      DRIZZLE   37  30  75 S13       30.23S
SHARON SPRINGS   N/A     33  30  90 S14         N/A
KIT CARSON CO    N/A     32  29  90 MISG        N/A
YUMA CO          N/A     38  31  74 SE5G12      N/A
$$



USA.gov is the U.S. government's official web portal to all federal, state and local government web resources and services.